This demonstration page uses our WeatherBlox Daily Observations layout. Learn more.

Left ArrowRight Arrow

Hourly Observations for July 5, 2022

Temp ( °F °C ) Dew Point ( °F °C ) Humidity (%) Winds ( mph kmh ) Pressure ( in mb ) Visibility ( mi km ) Precip ( " mm )
12:40 am 00:40 Partly Cloudy 60 15.6 59 15 96 96 E 10 17 29.90 1013 9 14 0.00 0.00
12:53 am 00:53 Mostly Clear 60 15.6 59 15 96 96 E 7 11 29.93 1014 9 14 0.00 0.00
1:32 am 01:32 Mostly Cloudy 60 15.6 59 15 96 96 E 5 7 29.91 1013 10 16 0.00 0.00
1:53 am 01:53 Mostly Cloudy 60 15.6 59 15 96 96 E 7 11 29.93 1014 10 16 0.00 0.00
2:53 am 02:53 Mostly Cloudy with Mist and Fog 59 15 58 14.4 96 96 WNW 8 13 29.94 1014 6 10 0.00 0.00
3:40 am 03:40 Mostly Cloudy with Mist and Fog 58 14.4 58 14.4 100 100 WSW 7 11 29.93 1013 6 10 0.00 0.00
3:53 am 03:53 Cloudy 58 14.4 58 14.4 100 100 WSW 7 11 29.93 1014 9 14 0.00 0.00
4:43 am 04:43 Cloudy 59 15 58 14.4 96 96 WSW 3 6 29.91 1013 10 16 0.00 0.00
4:53 am 04:53 Mostly Cloudy 58 14.4 57 13.9 97 97 Calm 29.93 1013 10 16 0.00 0.00
5:07 am 05:07 Partly Cloudy 57 13.9 56 13.3 96 96 Calm 29.92 1013 10 16 0.00 0.00
5:53 am 05:53 Sunny 56 13.3 56 13.3 100 100 Calm 29.93 1014 10 16 0.00 0.00
6:53 am 06:53 Sunny 59 15 57 13.9 93 93 WNW 3 6 29.94 1014 10 16 0.00 0.00
7:53 am 07:53 Sunny 61 16.1 58 14.4 90 90 SW 5 7 29.95 1014 10 16 0.00 0.00
8:41 am 08:41 Partly Cloudy 63 17.2 59 15 87 87 WSW 8 13 29.93 1013 10 16 0.00 0.00
8:51 am 08:51 Mostly Cloudy 63 17 59 15 88 88 SW 7 11 29.93 1014 10 16 0.00 0.00
8:53 am 08:53 Mostly Cloudy 63 17.2 59 15 87 87 SW 7 11 29.96 1015 10 16 0.00 0.00
9:53 am 09:53 Mostly Cloudy 66 18.9 59 15 78 78 W 6 9 29.96 1015 10 16 0.00 0.00
10:04 am 10:04 Partly Cloudy 65 18.3 59 15 81 81 SW 6 9 29.91 1013 10 16 0.00 0.00
10:53 am 10:53 Mostly Sunny 69 20.6 59 15 70 70 Calm 29.96 1015 10 16 0.00 0.00
11:53 am 11:53 Partly Cloudy 73 22.8 58 14.4 59 59 SSW 5 7 29.95 1014 10 16 0.00 0.00
12:53 pm 12:53 Partly Cloudy 74 23.3 56 13.3 54 54 Calm 29.94 1014 10 16 0.00 0.00
1:53 pm 13:53 Sunny 77 25 54 12.2 45 45 VRB 6 9 29.92 1013 10 16 0.00 0.00
2:53 pm 14:53 Sunny 80 26.7 53 11.7 39 39 W 9 15 29.90 1012 10 16 0.00 0.00
3:53 pm 15:53 Mostly Sunny 84 28.9 46 7.8 27 27 W 14 22 29.89 1012 10 16 0.00 0.00
4:53 pm 16:53 Sunny 83 28.3 45 7.2 26 26 WNW 15 24 29.88 1012 10 16 0.00 0.00
5:53 pm 17:53 Sunny 83 28.3 42 5.6 24 24 WNW 8 13 29.88 1012 10 16 0.00 0.00
6:53 pm 18:53 Sunny 82 27.8 41 5 23 23 NW 8 13 29.87 1012 10 16 0.00 0.00
7:53 pm 19:53 Sunny 80 26.7 40 4.4 24 24 N 9 15 29.87 1012 10 16 0.00 0.00
8:53 pm 20:53 Sunny 75 23.9 44 6.7 33 33 NNE 6 9 29.89 1012 10 16 0.00 0.00
9:53 pm 21:53 Clear 69 20.6 44 6.7 41 41 N 5 7 29.92 1013 10 16 0.00 0.00
10:53 pm 22:53 Clear 64 17.8 47 8.3 54 54 Calm 29.95 1014 10 16 0.00 0.00
11:53 pm 23:53 Clear 63 17.2 47 8.3 56 56 ENE 7 11 29.96 1015 10 16 0.00 0.00

Powered by AerisWeather